Weather History for Cozumel, Mexico

Change the Weather History Date:

Tuesday, May 14, 2013

  Actual Average Record
Temperature  
Mean Temperature 76 °F -  
Max Temperature 82 °F 87 °F - ()
Min Temperature 71 °F 75 °F - ()
Cooling Degree Days 12    
Growing Degree Days 26 (Base 50)    
Moisture  
Dew Point 70 °F    
Average Humidity 78    
Maximum Humidity 94    
Minimum Humidity 66    
Precipitation  
Precipitation 0.00 in - - ()
Sea Level Pressure  
Sea Level Pressure 30.08 in    
Wind  
Wind Speed 7 mph ()    
Max Wind Speed 20 mph    
Max Gust Speed 26 mph    
Visibility 7.5 miles    
Events      
T = Trace of Precipitation, MM = Missing Value Source: Averaged Metar Reports

Daily Weather History Graph

Daily Weather History Graph

Search for Another Location

Airport:

Trip Planner

Search our weather history database for the weather conditions in past years. The results will help you decide how hot, cold, wet, or windy it might be!

Date:

Astronomy

May. 14, 2013 Rise Set
Actual Time 6:11 AM CDT 7:17 PM CDT
Civil Twilight 5:47 AM CDT 7:40 PM CDT
Nautical Twilight 5:19 AM CDT 8:09 PM CDT
Astronomical Twilight 4:50 AM CDT 8:37 PM CDT
Moon 9:49 AM CDT (5/14) 11:08 PM CDT (5/14)
Length of Visible Light 13h 53m
Length of Day
13h 06m
Waxing Crescent, 19% of the Moon is Illuminated
May 14
Waxing Crescent
May 17
First Quarter
May 24
Full
May 31
Last Quarter
Jun 8
New

Hourly Weather History & Observations

Time (CDT) Temp. Heat Index Dew Point Humidity Pressure Visibility Wind Dir Wind Speed Gust Speed Precip Events Conditions
12:42 AM 75.2 °F - 69.8 °F 83% 30.04 in 7.0 mi ENE 4.6 mph - N/A   Scattered Clouds
1:40 AM 75.2 °F - 69.8 °F 83% 30.07 in 7.0 mi ENE 3.5 mph - N/A   Scattered Clouds
2:41 AM 75.2 °F - 69.8 °F 83% 30.06 in 7.0 mi ENE 6.9 mph - N/A   Scattered Clouds
3:42 AM 75.2 °F - 69.8 °F 83% 30.09 in 7.0 mi East 3.5 mph - N/A   Scattered Clouds
5:08 AM 75.2 °F - 69.8 °F 83% 30.06 in 7.0 mi ENE 4.6 mph - N/A   Scattered Clouds
5:42 AM 75.2 °F - 69.8 °F 83% 30.07 in 7.0 mi ENE 4.6 mph - N/A   Mostly Cloudy
6:50 AM 75.2 °F - 71.6 °F 89% 30.04 in 7.0 mi NE 3.5 mph - N/A   Scattered Clouds
7:45 AM 78.8 °F - 71.6 °F 78% 30.10 in 8.0 mi ENE 11.5 mph - N/A   Scattered Clouds
8:43 AM 80.6 °F 84.6 °F 71.6 °F 74% 30.10 in 8.0 mi East 11.5 mph - N/A   Scattered Clouds
9:43 AM 80.6 °F 84.6 °F 71.6 °F 74% 30.15 in 8.0 mi East 11.5 mph - N/A   Scattered Clouds
10:42 AM 82.4 °F 87.2 °F 71.6 °F 70% 30.12 in 8.0 mi ENE 13.8 mph - N/A   Scattered Clouds
11:51 AM 82.4 °F 87.2 °F 71.6 °F 70% 30.11 in 8.0 mi NE 12.7 mph 24.2 mph N/A   Scattered Clouds
12:52 PM 82.4 °F 87.2 °F 71.6 °F 70% 30.06 in 8.0 mi ENE 16.1 mph - N/A   Scattered Clouds
1:42 PM 82.4 °F 87.2 °F 71.6 °F 70% 30.08 in 8.0 mi ENE 16.1 mph - N/A   Scattered Clouds
2:40 PM 82.4 °F 86.3 °F 69.8 °F 66% 30.07 in 8.0 mi ENE 15.0 mph 26.5 mph N/A   Scattered Clouds
3:50 PM 82.4 °F 86.3 °F 69.8 °F 66% 30.10 in 8.0 mi ENE 15.0 mph - N/A   Scattered Clouds
4:46 PM 80.6 °F 83.9 °F 69.8 °F 70% 30.05 in 8.0 mi ENE 19.6 mph - N/A   Scattered Clouds
5:42 PM 78.8 °F - 69.8 °F 74% 30.05 in 8.0 mi East 17.3 mph - N/A   Scattered Clouds
6:42 PM 77.0 °F - 69.8 °F 78% 30.02 in 8.0 mi ENE 9.2 mph - N/A   Scattered Clouds
7:49 PM 75.2 °F - 69.8 °F 83% 30.07 in 7.0 mi ENE 9.2 mph - N/A   Scattered Clouds
8:46 PM 75.2 °F - 69.8 °F 83% 30.08 in 7.0 mi East 6.9 mph - N/A   Scattered Clouds
9:44 PM 75.2 °F - 69.8 °F 83% 30.12 in 7.0 mi ENE 5.8 mph - N/A   Scattered Clouds
10:48 PM 71.6 °F - 69.8 °F 94% 30.10 in 7.0 mi ENE 3.5 mph - N/A   Scattered Clouds
11:44 PM 73.4 °F - 68.0 °F 83% 30.10 in 7.0 mi Calm Calm - N/A   Scattered Clouds